TimeCST,TemperatureF,Dew PointF,Humidity,Sea Level PressureIn,VisibilityMPH,Wind Direction,Wind SpeedMPH,Gust SpeedMPH,PrecipitationIn,Events,Conditions,WindDirDegrees,DateUTC
12:53 AM,73.0,68.0,84,29.78,10.0,SSE,10.4,20.7,0.00,,Overcast,160,2011-11-15 06:53:00
1:09 AM,73.4,69.8,88,29.80,10.0,South,11.5,-,N/A,,Overcast,170,2011-11-15 07:09:00
1:32 AM,73.4,69.8,88,29.80,10.0,SSE,11.5,-,N/A,,Overcast,160,2011-11-15 07:32:00
1:53 AM,73.9,69.1,85,29.79,10.0,South,9.2,-,N/A,,Overcast,170,2011-11-15 07:53:00
2:48 AM,73.4,69.8,88,29.79,10.0,South,10.4,-,0.00,Rain,Light Rain,170,2011-11-15 08:48:00
2:53 AM,73.0,69.1,87,29.78,10.0,SSE,9.2,-,0.00,Rain,Light Rain,160,2011-11-15 08:53:00
3:18 AM,73.4,69.8,88,29.79,10.0,SSE,10.4,-,0.00,,Overcast,160,2011-11-15 09:18:00
3:53 AM,73.0,69.1,87,29.76,10.0,SE,5.8,-,0.00,,Overcast,140,2011-11-15 09:53:00
4:53 AM,73.0,69.1,87,29.76,10.0,SSE,4.6,-,N/A,,Overcast,160,2011-11-15 10:53:00
5:53 AM,72.0,69.1,91,29.76,9.0,SE,3.5,-,0.00,Rain,Light Rain,140,2011-11-15 11:53:00
6:53 AM,71.6,69.8,94,29.78,9.0,SE,6.9,-,N/A,,Overcast,130,2011-11-15 12:53:00
7:28 AM,71.6,69.8,94,29.80,9.0,SE,4.6,-,N/A,,Overcast,130,2011-11-15 13:28:00
7:53 AM,72.0,70.0,93,29.78,7.0,SSE,6.9,-,N/A,,Overcast,160,2011-11-15 13:53:00
8:23 AM,71.6,69.8,94,29.79,7.0,South,6.9,-,N/A,,Overcast,170,2011-11-15 14:23:00
8:30 AM,73.4,69.8,88,29.79,8.0,South,8.1,-,N/A,,Overcast,170,2011-11-15 14:30:00
8:53 AM,73.9,70.0,87,29.79,10.0,South,10.4,-,N/A,,Scattered Clouds,180,2011-11-15 14:53:00
9:03 AM,75.2,69.8,83,29.80,10.0,South,10.4,-,N/A,,Partly Cloudy,180,2011-11-15 15:03:00
9:43 AM,75.2,69.8,83,29.80,10.0,South,9.2,-,N/A,,Overcast,170,2011-11-15 15:43:00
9:53 AM,75.9,70.0,82,29.79,10.0,SSE,11.5,-,N/A,,Overcast,160,2011-11-15 15:53:00
10:13 AM,75.2,69.8,83,29.81,10.0,South,11.5,-,N/A,,Overcast,170,2011-11-15 16:13:00
10:30 AM,75.2,69.8,83,29.79,10.0,SSE,6.9,-,N/A,,Mostly Cloudy,160,2011-11-15 16:30:00
10:53 AM,75.0,70.0,84,29.78,9.0,SSE,8.1,-,0.00,Rain,Light Rain,150,2011-11-15 16:53:00
11:13 AM,73.4,71.6,94,29.78,10.0,SSE,9.2,-,0.01,Rain,Light Rain,150,2011-11-15 17:13:00
11:16 AM,73.4,71.6,94,29.78,10.0,SSE,11.5,-,0.01,Rain,Light Rain,150,2011-11-15 17:16:00
11:26 AM,73.4,69.8,88,29.78,8.0,South,12.7,-,0.01,Rain,Light Rain,170,2011-11-15 17:26:00
11:41 AM,73.4,69.8,88,29.77,9.0,SSE,5.8,-,0.02,Rain,Light Rain,160,2011-11-15 17:41:00
11:53 AM,72.0,69.1,91,29.76,10.0,South,8.1,-,0.02,Rain,Light Rain,170,2011-11-15 17:53:00
12:53 PM,70.0,68.0,93,29.71,8.0,Variable,4.6,-,0.05,Rain,Light Rain,0,2011-11-15 18:53:00
1:07 PM,69.8,66.2,88,29.72,5.0,Calm,Calm,-,0.01,Rain,Light Rain,0,2011-11-15 19:07:00
1:17 PM,69.8,66.2,88,29.73,3.0,ESE,5.8,-,0.05,Rain-Thunderstorm,Rain,120,2011-11-15 19:17:00
1:53 PM,69.1,68.0,96,29.72,2.5,Calm,Calm,-,0.12,Rain-Thunderstorm,Rain,0,2011-11-15 19:53:00
2:13 PM,69.8,66.2,88,29.75,5.0,WNW,17.3,21.9,0.05,Rain-Thunderstorm,Light Rain,290,2011-11-15 20:13:00
2:29 PM,66.2,62.6,88,29.69,8.0,North,11.5,-,0.09,Rain,Light Rain,360,2011-11-15 20:29:00
2:37 PM,66.2,62.6,88,29.67,10.0,North,11.5,-,0.09,Rain,Light Rain,10,2011-11-15 20:37:00
2:53 PM,66.0,63.0,90,29.67,10.0,East,5.8,-,0.09,,Mostly Cloudy,100,2011-11-15 20:53:00
3:53 PM,68.0,64.4,88,29.67,10.0,East,6.9,-,N/A,,Partly Cloudy,80,2011-11-15 21:53:00
4:53 PM,70.0,66.0,87,29.68,10.0,NNE,3.5,-,N/A,,Overcast,30,2011-11-15 22:53:00
5:29 PM,69.8,66.2,88,29.71,10.0,Calm,Calm,-,N/A,,Overcast,0,2011-11-15 23:29:00
5:53 PM,69.1,66.0,90,29.70,10.0,Calm,Calm,-,N/A,,Overcast,0,2011-11-15 23:53:00
6:04 PM,69.8,66.2,88,29.71,10.0,North,3.5,-,N/A,,Overcast,350,2011-11-16 00:04:00
6:53 PM,68.0,66.0,93,29.72,10.0,ESE,3.5,-,0.01,Rain,Light Rain,110,2011-11-16 00:53:00
7:31 PM,66.2,64.4,94,29.73,9.0,West,5.8,-,0.00,,Scattered Clouds,270,2011-11-16 01:31:00
7:42 PM,66.2,66.2,100,29.73,9.0,Calm,Calm,-,0.00,,Scattered Clouds,0,2011-11-16 01:42:00
7:53 PM,66.9,64.9,93,29.72,8.0,Calm,Calm,-,0.00,,Mostly Cloudy,0,2011-11-16 01:53:00
8:01 PM,66.2,64.4,94,29.73,7.0,ENE,3.5,-,N/A,,Scattered Clouds,60,2011-11-16 02:01:00
8:37 PM,66.2,64.4,94,29.72,1.5,Calm,Calm,-,N/A,,Clear,0,2011-11-16 02:37:00
8:45 PM,66.2,64.4,94,29.73,1.2,Calm,Calm,-,N/A,,Partly Cloudy,0,2011-11-16 02:45:00
8:49 PM,64.4,64.4,100,29.73,4.0,Calm,Calm,-,N/A,,Clear,0,2011-11-16 02:49:00
8:53 PM,64.9,64.0,97,29.72,3.0,Calm,Calm,-,N/A,,Clear,0,2011-11-16 02:53:00
8:57 PM,64.4,64.4,100,29.73,1.8,Calm,Calm,-,N/A,,Partly Cloudy,0,2011-11-16 02:57:00
9:05 PM,64.4,62.6,94,29.73,0.8,Calm,Calm,-,N/A,,Mist,0,2011-11-16 03:05:00
9:14 PM,64.4,62.6,94,29.74,1.0,WSW,3.5,-,N/A,,Mostly Cloudy,250,2011-11-16 03:14:00
9:30 PM,64.4,64.4,100,29.74,3.0,Calm,Calm,-,N/A,,Overcast,0,2011-11-16 03:30:00
9:53 PM,66.0,64.9,96,29.73,6.0,West,3.5,-,N/A,,Overcast,270,2011-11-16 03:53:00
10:53 PM,66.0,64.9,96,29.74,7.0,West,4.6,-,N/A,,Overcast,280,2011-11-16 04:53:00
11:13 PM,66.2,64.4,94,29.75,7.0,Calm,Calm,-,N/A,,Overcast,0,2011-11-16 05:13:00
11:53 PM,66.0,64.0,93,29.73,7.0,Calm,Calm,-,N/A,,Overcast,0,2011-11-16 05:53:00